Flag for U.S.A. Weather past 2 weeks in Hayward, California, U.S.A.

Now
72 °F

Clear.


Feels Like: 74 °F
Forecast: 60 / 84 °F
Wind: 5 mph from West

Location: Hayward Air Terminal

Current Time: Jul 25, 2014 at 10:11:14 PM

Latest Report: Jul 25, 2014 at 9:54 PM


Visibility: 10 mi

Pressure: 29.89 "Hg

Humidity: 71%

Dew point: 62 °F

Location of HaywardLocation

Historic Weather in Hayward — Graph

°F

Hayward temperature yesterday

Maximum temperature yesterday: 85 °F (at 3:54 PM)
Minimum temperature yesterday: 63 °F (at 5:54 AM)
Average temperature yesterday: 72 °F

Past Weeks' High & Low Weather Summary

 TemperatureHumidityPressure
High93 °F (Jul 25, 1:54 PM)100% (Jul 10, 10:54 PM)30.17 "Hg (Jul 10, 10:54 PM)
Low57 °F (Jul 12, 8:01 PM)26% (Jul 25, 1:54 PM)29.85 "Hg (Jul 25, 5:54 PM)
Average67 °F78%30.01 "Hg
* Reported Jul 10 8:54 PM — Jul 25 8:54 PM, Hayward, Weather by CustomWeather, © 2014

Note: Actual official high and low records may vary slightly from our data, if they occured in-between our weather recording intervals... More about our weather records

Advertising

Hayward weather history for previous 24 hours

 ConditionsComfort  
Time TempWeatherWind HumidityBarometerVisibility
8:54 PM
Jul 25
75 °FSunny.7 mph58%29.87 "Hg10 mi
7:54 PM78 °FSunny.6 mph56%29.86 "Hg10 mi
6:54 PM82 °FSunny.8 mph48%29.85 "Hg10 mi
5:54 PM84 °FSunny.13 mph40%29.85 "Hg10 mi
4:54 PM87 °FSunny.15 mph35%29.85 "Hg10 mi
3:54 PM90 °FSunny.14 mph34%29.85 "Hg10 mi
2:54 PM93 °FSunny.14 mph29%29.86 "Hg10 mi
1:54 PM93 °FSunny.12 mph26%29.87 "Hg10 mi
12:54 PM88 °FSunny.5 mph31%29.88 "Hg10 mi
11:54 AM83 °FSunny.5 mph43%29.89 "Hg10 mi
10:54 AM80 °FSunny.5 mph51%29.90 "Hg10 mi
9:54 AM79 °FSunny.No wind50%29.90 "Hg10 mi
8:54 AM73 °FSunny.No wind59%29.91 "Hg10 mi
7:54 AM68 °FSunny.No wind76%29.90 "Hg10 mi
6:54 AM64 °FClear.No wind87%29.88 "Hg9 mi
5:54 AM63 °FClear.3 mph87%29.86 "Hg10 mi
4:54 AM63 °FClear.No wind84%29.86 "Hg10 mi
3:54 AM65 °FClear.No wind70%29.85 "Hg10 mi
2:54 AM66 °FClear.No wind73%29.85 "Hg10 mi
1:54 AM67 °FClear.No wind71%29.87 "Hg10 mi
12:54 AM67 °FClear.No wind79%29.88 "Hg10 mi
11:54 PM
Jul 24
69 °FClear.No wind73%29.88 "Hg10 mi
10:54 PM68 °FClear.3 mph76%29.88 "Hg10 mi
Weather by CustomWeather, © 2014

See weather overviewHow to use our weather pages